KSAZ Airport (Staples Muni) Information

FAA: SAZ - ICAO: KSAZ

KSAZ Airport Location

State Minnesota
County Wadena
City Staples
KSAZ Airport is 2 miles northwest of Staples, MN.
Latitude 46-22-51.1660N
Longitude 094-48-23.7660W
Elevation 1,287ft

KSAZ Airport METARs

METAR KSAZ 282215Z 00000KT 7SM 27/14 A2956 RMK AO2
Altimeter 29.56"
Temperature 27.0°C (80.6°F)
Wind 0° at 0KT
Clouds at 0ft
Visibility 7.0mi
Time observed: 2022-05-28T22:15:00Z

KSAZ Airport Details

Status Operational
Activation October 1946
Ownership Public
Usage Public
Chart TWIN CITIES
ATC on-site No
Beacon schedule sunset-sunrise
Beacon color clear green

KSAZ Airport Contacts

Owner CITY OF STAPLES
Owner address 122 6TH ST. NE, STAPLES, MN 56479
Owner phone 218-894-2550
Manager DAVID MANSFIELD
Manager address 10051 BROOKSIDE AVE, BLOOMINGTON, MN 55431
Manager phone (817) 360-9430

KSAZ Airport (Staples Muni) Radio Frequencies

KSAZ (Airport) Radio Frequencies

UNICOM N/A
Common traffic advisory frequency (CTAF) 122.9